Location: Unspecified
(34.1750°S, 150.8048°E)
Time: 11:04:47
(UTC+10:00)

Tiangong - Pass Details

Date: 26 April 2024
Orbit: 372 x 375 km, 41.5° (Epoch: 20 May)

Event Time Altitude Azimuth Distance (km) Brightness Sun altitude
Exits shadow 05:42:46 13° 237° (WSW) 1,229 -0.2 -10.0°
Maximum altitude 05:44:50 23° 188° (S) 869 -0.5 -9.6°
Drops below altitude 10° 05:47:28 10° 132° (SE) 1,414 1.3 -9.0°
Sets 05:49:50 0° 117° (ESE) 2,274 2.7 -8.5°
